Stations météo

réclame
Mon MeteoGroup
Granada/Aeropuerto, Espagne (8419): Température de l'air & dewpoint: 17.04.2018 03:00:00 - 23.04.2018 03:00:00 (CEST)Granada/Aeropuerto, Espagne (8419): Vitesse du vent: 17.04.2018 03:00:00 - 23.04.2018 03:00:00 (CEST)Granada/Aeropuerto, Espagne (8419): Direction du vent: 17.04.2018 03:00:00 - 23.04.2018 03:00:00 (CEST)Granada/Aeropuerto, Espagne (8419): reduced air pressure: 17.04.2018 03:00:00 - 23.04.2018 03:00:00 (CEST)Granada/Aeropuerto, Espagne (8419): visibility: 17.04.2018 03:00:00 - 23.04.2018 03:00:00 (CEST)
Date & Time tt [°C] td [°C] ff [km/h] ff [knt] dd ppp [hPa] vv [km]
23.04.2018 03:00:00 18,2 7,4 15 8 NNE 1013,3 18
23.04.2018 02:00:00 18,5 8,1 22 12 NE 1013,2 18
23.04.2018 01:00:00 19,3 9,3 8 4 E 1014,4 19
23.04.2018 00:00:00 21,0 9,0 18 10 NNE 1013,5 17
22.04.2018 23:00:00 21,4 12,3 21 11 WNW 1012,1 15
22.04.2018 22:00:00 22,0 12,0 18 10 W 1011,2 14
22.04.2018 21:00:00 24,2 6,8 2 1 E 1008,7 12
22.04.2018 20:00:00 26,7 3,3 0 0 N 1008,0 10
22.04.2018 19:00:00 27,3 5,5 15 8 S 1008,1 13
22.04.2018 18:00:00 28,0 5,1 24 13 S 1008,1 14
22.04.2018 17:00:00 28,7 5,5 26 14 SSE 1007,7 15
22.04.2018 16:00:00 29,0 4,8 28 15 S 1007,7 9
22.04.2018 15:00:00 28,5 7,0 28 15 SSE 1008,0 15
22.04.2018 14:00:00 27,3 8,6 4 2 NNE 1008,7 15
22.04.2018 13:00:00 24,5 9,6 8 4 N 1009,8 18
22.04.2018 12:00:00 22,0 9,9 4 2 NNE 1010,8 22
22.04.2018 11:00:00 19,6 8,7 0 0 N 1011,6 15
22.04.2018 10:00:00 16,5 9,6 5 3 SE 1012,3 21
22.04.2018 09:00:00 14,9 9,9 8 4 ESE 1012,7 15
22.04.2018 08:00:00 13,0 9,1 8 4 S 1012,9 15
22.04.2018 07:00:00 10,6 8,9 0 0 N 1013,1 16
22.04.2018 06:00:00 10,5 8,9 4 2 SE 1013,7 14
22.04.2018 05:00:00 11,4 9,1 0 0 N 1013,8 17
22.04.2018 04:00:00 11,8 9,7 0 0 N 1014,1 14
22.04.2018 03:00:00 12,8 10,3 0 0 N 1014,5 13
22.04.2018 02:00:00 14,1 10,9 0 0 N 1014,8 13
22.04.2018 01:00:00 15,0 11,4 8 4 SSW 1014,7 14
22.04.2018 00:00:00 16,0 10,0 15 8 W 1014,3 19
21.04.2018 23:00:00 16,4 10,9 8 4 SSE 1013,2 20
21.04.2018 22:00:00 18,6 10,9 4 2 SSW 1012,2 21
21.04.2018 21:00:00 20,6 11,7 11 6 W 1010,9 19
21.04.2018 20:00:00 23,1 10,3 4 2 N 1010,4 20
21.04.2018 19:00:00 25,1 7,5 0 0 N 1009,7 18
21.04.2018 18:00:00 25,4 7,6 16 9 SSE 1010,2 18
21.04.2018 17:00:00 25,5 7,3 28 15 SE 1010,5 30
21.04.2018 16:00:00 25,6 8,8 26 14 SSE 1010,6 18
21.04.2018 15:00:00 25,0 7,9 37 20 SSE 1011,0 22
21.04.2018 14:00:00 25,2 9,8 8 4 ESE 1010,9 22
21.04.2018 13:00:00 23,5 9,7 9 5 ESE 1012,1 18
21.04.2018 12:00:00 21,0 8,5 5 3 ENE 1013,3 20
21.04.2018 11:00:00 18,6 8,8 8 4 NE 1014,1 20
21.04.2018 10:00:00 15,3 9,0 9 5 E 1015,4 17
21.04.2018 09:00:00 14,7 9,8 8 4 E 1015,5 20
21.04.2018 08:00:00 13,0 8,1 2 1 SSW 1015,9 20
21.04.2018 07:00:00 12,3 8,6 4 2 S 1015,7 20
21.04.2018 06:00:00 12,4 8,9 0 0 N 1015,2 18
21.04.2018 05:00:00 11,8 9,0 2 1 SSW 1015,4 14
21.04.2018 04:00:00 13,2 8,5 4 2 S 1015,4 20
21.04.2018 03:00:00 14,2 9,0 9 5 NE 1015,2 20
21.04.2018 02:00:00 14,5 9,7 8 4 ENE 1017,6 17
21.04.2018 01:00:00 14,8 9,6 8 4 SW 1018,1 21
21.04.2018 00:00:00 14,8 9,4 5 3 SSE 1017,3 19
20.04.2018 23:00:00 15,9 8,9 2 1 NNW 1016,7 12
20.04.2018 22:00:00 17,8 8,6 0 0 N 1014,7 25
20.04.2018 21:00:00 19,8 8,7 11 6 SSW 1013,7 24
20.04.2018 20:00:00 22,4 8,6 2 1 E 1012,5 12
20.04.2018 19:00:00 23,1 9,1 16 9 NE 1011,8 23
20.04.2018 18:00:00 23,9 9,7 11 6 NNE 1011,5 17
20.04.2018 17:00:00 24,1 9,9 8 4 NNE 1011,6 12
20.04.2018 16:00:00 23,7 9,2 4 2 ENE 1012,3 17
20.04.2018 15:00:00 23,2 10,4 5 3 ESE 1013,1 15
20.04.2018 14:00:00 21,6 9,6 5 3 SSW 1014,0 15
20.04.2018 13:00:00 20,5 8,3 2 1 S 1014,9 19
20.04.2018 12:00:00 18,6 8,9 2 1 ESE 1015,7 13
20.04.2018 11:00:00 16,5 8,6 4 2 ESE 1016,3 12
20.04.2018 10:00:00 15,4 8,8 4 2 ESE 1016,8 13
20.04.2018 09:00:00 12,4 8,7 8 4 E 1017,4 15
20.04.2018 08:00:00 9,4 7,2 5 3 ESE 1018,3 18
20.04.2018 07:00:00 9,2 7,8 4 2 S 1018,2 10
20.04.2018 06:00:00 9,5 8,3 5 3 ESE 1018,4 12
20.04.2018 05:00:00 9,1 7,6 4 2 SSE 1019,2 17
20.04.2018 04:00:00 9,5 7,9 4 2 WSW 1019,5 14
20.04.2018 03:00:00 10,8 8,7 8 4 SSW 1019,4 15
20.04.2018 02:00:00 12,5 9,3 8 4 SE 1019,2 16
20.04.2018 01:00:00 14,4 9,0 2 1 ESE 1019,0 21
20.04.2018 00:00:00 14,8 9,1 4 2 E 1018,7 21
19.04.2018 23:00:00 16,0 9,2 5 3 SSE 1018,4 20
19.04.2018 22:00:00 17,3 9,5 4 2 NE 1017,3 20
19.04.2018 21:00:00 19,3 9,6 24 13 S 1016,0 21
19.04.2018 20:00:00 20,9 10,4 22 12 S 1015,2 22
19.04.2018 19:00:00 22,4 10,9 24 13 SSE 1014,8 29
19.04.2018 18:00:00 23,6 10,7 24 13 SSE 1014,6 28
19.04.2018 17:00:00 24,3 9,1 18 10 S 1014,9 25
19.04.2018 16:00:00 24,6 8,7 21 11 S 1015,5 25
19.04.2018 15:00:00 24,3 8,3 15 8 S 1016,3 22
19.04.2018 14:00:00 23,2 7,4 4 2 NE 1017,2 20
19.04.2018 13:00:00 21,8 7,0 5 3 SE 1018,4 14
19.04.2018 12:00:00 19,8 7,1 4 2 ESE 1019,1 28
19.04.2018 11:00:00 17,5 6,7 4 2 ENE 1020,1 20
19.04.2018 10:00:00 13,8 8,6 0 0 N 1021,2 21
19.04.2018 09:00:00 10,4 7,3 0 0 N 1022,1 27
19.04.2018 08:00:00 6,9 5,5 2 1 SSW 1023,2 23
19.04.2018 07:00:00 7,1 5,6 0 0 N 1023,1 30
19.04.2018 06:00:00 8,1 6,4 0 0 N 1022,9 30
19.04.2018 05:00:00 8,7 6,3 0 0 N 1023,0 30
19.04.2018 04:00:00 9,2 7,3 0 0 N 1023,2 30
19.04.2018 03:00:00 10,8 8,1 0 0 N 1023,1 30
19.04.2018 02:00:00 12,4 8,5 2 1 E 1022,9 30
19.04.2018 01:00:00 14,1 7,8 8 4 ESE 1022,6 30
19.04.2018 00:00:00 15,4 7,7 4 2 ESE 1022,4 30
18.04.2018 23:00:00 16,1 7,5 8 4 SE 1022,0 30
18.04.2018 22:00:00 18,1 7,0 4 2 SSE 1020,9 30
18.04.2018 21:00:00 19,5 7,2 22 12 S 1019,4 30
18.04.2018 20:00:00 21,7 7,9 22 12 S 1018,7 30
18.04.2018 19:00:00 23,2 8,6 24 13 SSE 1018,3 30
18.04.2018 18:00:00 24,6 9,1 18 10 SSE 1018,3 29
18.04.2018 17:00:00 25,3 8,6 15 8 SSE 1018,2 30
18.04.2018 16:00:00 25,4 8,1 8 4 SE 1018,6 30
18.04.2018 15:00:00 24,6 6,2 15 8 SSE 1019,1 30
18.04.2018 14:00:00 23,5 8,9 13 7 ESE 1019,8 30
18.04.2018 13:00:00 22,1 8,3 4 2 E 1020,8 30
18.04.2018 12:00:00 20,0 9,0 11 6 E 1021,8 30
18.04.2018 11:00:00 17,0 9,2 2 1 ENE 1022,7 30
18.04.2018 10:00:00 13,7 9,4 0 0 N 1023,5 15
18.04.2018 09:00:00 10,8 7,7 0 0 N 1024,3 30
18.04.2018 08:00:00 7,2 6,3 5 3 SW 1025,0 30
18.04.2018 07:00:00 7,1 5,9 0 0 N 1024,5 17
18.04.2018 06:00:00 7,7 6,3 0 0 N 1024,4 20
18.04.2018 05:00:00 8,7 6,8 0 0 N 1024,5 24
18.04.2018 04:00:00 9,3 7,3 0 0 N 1024,5 28
18.04.2018 03:00:00 10,4 7,5 0 0 N 1024,7 30
18.04.2018 02:00:00 10,9 7,8 0 0 N 1024,7 30
18.04.2018 01:00:00 12,3 7,2 5 3 NNE 1024,2 30
18.04.2018 00:00:00 13,4 8,7 0 0 N 1024,0 30
17.04.2018 23:00:00 14,7 8,7 4 2 SSW 1023,3 30
17.04.2018 22:00:00 17,0 8,2 4 2 SW 1021,9 30
17.04.2018 21:00:00 18,8 8,2 15 8 S 1020,6 30
17.04.2018 20:00:00 21,4 9,1 16 9 SSE 1019,6 30
17.04.2018 19:00:00 23,7 9,0 15 8 SSE 1019,0 30
17.04.2018 18:00:00 25,1 3,1 0 0 N 1018,8 30
17.04.2018 17:00:00 25,2 4,4 4 2 NW 1019,1 30
17.04.2018 16:00:00 24,7 5,5 0 0 N 1019,7 30
17.04.2018 15:00:00 23,3 3,8 4 2 NNE 1020,5 30
17.04.2018 14:00:00 21,8 8,2 2 1 WNW 1021,3 40
17.04.2018 13:00:00 19,8 8,2 0 0 N 1022,4 30
17.04.2018 12:00:00 17,3 8,2 0 0 N 1023,3 30
17.04.2018 11:00:00 15,4 8,2 0 0 N 1023,9 30
17.04.2018 10:00:00 12,1 7,7 0 0 N 1024,7 17
17.04.2018 09:00:00 8,6 6,7 0 0 N 1025,5 25
17.04.2018 08:00:00 4,8 3,9 0 0 N 1025,8 25
17.04.2018 07:00:00 4,8 3,8 0 0 N 1025,3 20
17.04.2018 06:00:00 5,1 4,4 4 2 SW 1025,1 20
17.04.2018 05:00:00 5,8 4,8 0 0 N 1024,8 16
17.04.2018 04:00:00 6,1 5,4 0 0 N 1024,7 25
17.04.2018 03:00:00 7,3 6,1 4 2 WSW 1024,3 23

tt = Température de l'air
td = dewpoint
ff = Vitesse du vent
dd = Direction du vent
ppp = reduced air pressure
vv = visibility

stations d'obs. à proximité